Flag for Libya Weather past 2 weeks in Tripoli, Libya

Now
93 °F

Clear.


Feels Like: 94 °F
Forecast: 82 / 95 °F
Wind: 7 mph from South

Location: Djerba Mellita

Current Time: Sep 22, 2014 at 10:29:22 AM

Latest Report: Sep 22, 2014 at 10:00 AM


Visibility: 5 mi

Pressure: 29.89 "Hg

Humidity: 36%

Dew point: 63 °F

Location of TripoliLocation

Historic Weather in Tripoli — Graph

°F

Tripoli temperature yesterday

Maximum temperature yesterday: 93 °F (at 1:00 PM)
Minimum temperature yesterday: 81 °F (at 6:30 AM)
Average temperature yesterday: 87 °F

Past Weeks' High & Low Weather Summary

 TemperatureHumidityPressure
High106 °F (Sep 19, 5:30 PM)94% (Sep 10, 4:30 AM)30.07 "Hg (Sep 10, 4:30 AM)
Low73 °F (Sep 10, 5:30 AM)20% (Sep 16, 2:30 PM)29.77 "Hg (Sep 16, 5:30 PM)
Average86 °F65%29.92 "Hg
* Reported Sep 7 9:00 AM — Sep 22 9:30 AM, Tripoli, Weather by CustomWeather, © 2014

Note: Actual official high and low records may vary slightly from our data, if they occured in-between our weather recording intervals... More about our weather records

Advertising

Tripoli weather history for previous 24 hours

 ConditionsComfort  
Time TempWeatherWind HumidityBarometerVisibility
9:30 AM
Sep 22
90 °FClear.8 mph49%29.89 "Hg4 mi
9:00 AM86 °FClear.3 mph55%29.92 "Hg4 mi
8:30 AM84 °FClear.8 mph55%29.89 "Hg4 mi
8:00 AM82 °FClear.6 mph62%29.89 "Hg4 mi
7:30 AM79 °FClear.No wind65%29.89 "Hg4 mi
7:00 AM79 °FClear.3 mph65%29.89 "Hg5 mi
6:30 AM79 °FClear.3 mph65%29.89 "Hg5 mi
6:00 AM79 °FClear.7 mph65%29.89 "Hg5 mi
5:30 AM79 °FClear.7 mph70%29.89 "Hg5 mi
5:00 AM81 °FClear.3 mph66%29.89 "Hg5 mi
4:30 AM81 °FClear.3 mph66%29.92 "Hg5 mi
4:00 AM82 °FClear.5 mph66%29.92 "Hg5 mi
3:30 AM82 °FClear.7 mph66%29.92 "Hg5 mi
3:00 AM81 °FClear.7 mph70%29.92 "Hg5 mi
2:30 AM81 °FClear.7 mph74%29.95 "Hg5 mi
2:00 AM81 °FClear.7 mph79%29.95 "Hg5 mi
1:30 AM81 °FClear.5 mph74%29.98 "Hg5 mi
1:00 AM82 °FClear.6 mph70%29.98 "Hg5 mi
12:30 AM82 °FClear.5 mph70%29.98 "Hg5 mi
12:00 AM82 °FClear.5 mph74%30.01 "Hg5 mi
11:30 PM
Sep 21
82 °FClear.5 mph74%30.01 "Hg5 mi
11:00 PM82 °FClear.3 mph74%30.01 "Hg5 mi
10:30 PM84 °FClear.3 mph66%30.01 "Hg5 mi
10:00 PM84 °FClear.3 mph66%30.01 "Hg5 mi
9:30 PM86 °FClear.7 mph62%30.01 "Hg5 mi
9:00 PM86 °FClear.10 mph59%29.98 "Hg5 mi
8:30 PM88 °FClear.10 mph52%29.98 "Hg5 mi
8:00 PM88 °FClear.10 mph52%29.98 "Hg5 mi
7:30 PM88 °FClear.12 mph52%29.98 "Hg5 mi
7:00 PM90 °FClear.13 mph49%29.98 "Hg5 mi
6:30 PM90 °FClear.14 mph52%29.98 "Hg5 mi
6:00 PM91 °FClear.14 mph59%29.98 "Hg5 mi
5:30 PM91 °FClear.14 mph52%29.98 "Hg5 mi
5:00 PM93 °FClear.15 mph44%29.98 "Hg5 mi
4:30 PM93 °FClear.16 mph47%29.98 "Hg5 mi
4:00 PM93 °FClear.15 mph53%30.01 "Hg5 mi
3:30 PM93 °FClear.16 mph53%30.01 "Hg5 mi
3:00 PM91 °FClear.14 mph59%30.01 "Hg5 mi
2:30 PM93 °FClear.14 mph56%30.04 "Hg5 mi
2:00 PM91 °FClear.14 mph59%30.04 "Hg5 mi
1:30 PM91 °FClear.13 mph56%30.04 "Hg5 mi
1:00 PM93 °FClear.13 mph56%30.04 "Hg5 mi
12:30 PM91 °FClear.10 mph59%30.07 "Hg5 mi
12:00 PM91 °FClear.10 mph63%30.07 "Hg5 mi
11:30 AM91 °FClear.10 mph67%30.07 "Hg5 mi
11:00 AM91 °FClear.5 mph63%30.07 "Hg4 mi
10:30 AM90 °FClear.5 mph67%30.04 "Hg4 mi
10:00 AM88 °FClear.7 mph70%30.04 "Hg4 mi
Weather by CustomWeather, © 2014

See weather overviewHow to use our weather pages